#timestamp,LO_Frequency,Hit,StdDev 
1621206015.9,286047000.6,N
1621206035.7,286046999.8,N
1621206055.6,286047000.4,N
1621206075.4,286047002.6,N
1621206095.3,286047001.0,N
1621206115.1,286046999.3,N
1621206116.0,286046999.3,N
1621206135.8,286046995.4,Y
1621206155.7,286046995.5,P
1621206175.5,286046998.0,N
1621206195.4,286046995.4,N
1621206215.2,286046996.6,N
1621206235.0,286046997.0,N
1621206235.9,286046997.0,N
1621206255.8,286046999.4,N
1621206275.6,286046999.2,N
1621206295.4,286046998.1,N
1621206315.3,286047001.1,N
1621206335.1,286047000.8,N
1621206355.9,286047000.4,N
1621206375.7,286047000.3,N
1621206395.5,286047002.6,N
1621206415.4,286046999.7,N
1621206435.2,286046999.8,N
1621206455.0,286047002.3,N
1621206456.0,286047002.3,N
1621206475.8,286047002.4,N
1621206495.6,286046999.8,N
1621206515.5,286047001.7,N
1621206535.3,286047002.0,N
1621206555.1,286047004.3,N
1621206575.9,286047004.2,N
1621206595.7,286047003.9,N
1621206615.6,286047002.0,N
1621206635.4,286047001.7,N
1621206655.2,286047001.3,N
1621206675.1,286047004.4,N
1621206676.0,286047004.4,N
1621206695.8,286047003.2,N
1621206715.6,286047004.3,N
1621206735.5,286047002.1,N
1621206755.3,286047001.5,N
1621206775.2,286047001.6,N
1621206795.9,286047001.6,N
1621206815.7,286047003.7,N
1621206835.6,286047004.1,N
1621206855.4,286047001.4,N
1621206875.3,286047003.5,N
1621206895.1,286047005.3,Y
1621206896.0,286047005.3,P
1621206915.8,286047001.3,N
1621206935.7,286047004.4,N
1621206955.5,286047001.9,N
1621206975.4,286047002.3,N
1621206995.2,286047002.3,N
1621207015.0,286047001.9,N
1621207015.9,286047001.9,N
1621207035.8,286047003.7,N
1621207055.6,286047003.6,N
1621207075.4,286047003.7,Y
1621207095.3,286046999.8,P
1621207115.1,286046999.9,N
1621207135.9,286047002.2,N
1621207155.7,286047001.9,N
1621207175.5,286047001.6,N
1621207195.4,286047003.5,Y
1621207215.2,286047002.4,P
1621207235.1,286047002.4,P
1621207236.0,286047002.4,P
1621207255.8,286047001.2,N
1621207275.6,286047000.3,N
1621207295.5,286047000.0,N
1621207315.3,286047000.1,N
1621207335.1,286047002.0,N
1621207355.9,286046999.8,N
1621207375.7,286047002.2,N
1621207395.6,286046999.7,N
1621207415.4,286047000.2,N
1621207435.2,286047002.8,N
1621207455.1,286047002.4,N
1621207456.0,286047002.4,N
1621207475.8,286047001.5,N
1621207495.7,286047002.6,N
1621207515.5,286047003.9,Y
1621207535.3,286047000.6,P
1621207555.2,286047001.0,N
1621207575.0,286047000.2,N
1621207575.9,286047000.2,N
1621207595.7,286047000.4,N
1621207615.6,286046998.5,Y
1621207635.4,286046998.1,P
1621207655.3,286046998.9,N
1621207675.1,286047000.6,N
1621207695.8,286047000.8,N
1621207715.7,286047001.0,N
1621207735.5,286047000.7,N
1621207755.4,286046998.8,N
1621207775.2,286046997.4,N
1621207795.0,286046998.7,N
1621207795.9,286046998.7,N
1621207815.8,286046996.6,N
1621207835.6,286046997.4,N
1621207855.5,286046999.4,N
1621207875.3,286047001.1,N
1621207895.1,286046998.1,N
1621207915.9,286047000.5,N
1621207935.7,286047000.9,N
1621207955.5,286047000.6,N
1621207975.4,286046999.3,N
1621207995.2,286046998.7,N
1621208015.1,286047001.0,N
1621208016.0,286047001.0,N
1621208035.8,286047000.3,N
1621208055.6,286047000.6,N
1621208075.5,286047002.4,N
1621208095.3,286047002.2,N
1621208115.1,286047004.4,N
1621208135.9,286047002.5,N
1621208155.7,286047002.4,N
1621208175.6,286047002.3,N
1621208195.4,286047001.3,N
1621208215.2,286047004.2,N
1621208235.1,286047001.8,N
1621208236.0,286047001.8,N
1621208255.8,286047004.2,N
1621208275.7,286047005.6,N
1621208295.5,286047001.3,N
1621208315.3,286047004.2,N
1621208335.2,286047001.5,N
1621208355.9,286047002.1,N
1621208375.7,286047004.2,N
1621208395.6,286047004.1,N
1621208415.4,286047003.9,N
1621208435.3,286047004.2,N
1621208455.1,286047003.1,N
1621208456.0,286047003.1,N
1621208475.8,286047004.3,N
1621208495.7,286047003.7,N
1621208515.5,286047005.6,Y
1621208535.3,286047002.2,P
1621208555.2,286047001.8,P
1621208575.0,286047001.4,P
1621208575.9,286047001.4,Y
1621208595.8,286047000.9,P
1621208615.6,286047000.3,N
1621208635.4,286047000.3,N
1621208655.3,286047000.5,N
1621208675.1,286046998.2,N
1621208695.9,286047000.8,N
1621208715.7,286046998.2,N
1621208735.5,286046998.1,N
1621208755.4,286046998.8,N
1621208775.2,286046998.1,N
1621208795.1,286046999.5,N
1621208796.0,286046999.5,N
1621208815.8,286046999.5,N
1621208835.6,286046998.1,N
1621208855.5,286046998.4,N
1621208875.3,286046999.5,N
1621208895.1,286046999.5,N
1621208915.9,286046999.4,N
1621208935.7,286046998.2,N
1621208955.6,286047001.1,N
1621208975.4,286047000.0,N
1621208995.2,286047000.0,N
1621209015.1,286047000.5,N
1621209016.0,286047000.5,N
1621209035.8,286046999.9,N
1621209055.7,286047002.6,N
1621209075.5,286047000.8,N
1621209095.3,286047000.5,N
1621209115.2,286047000.2,N
1621209135.0,286046999.9,N
1621209135.9,286046999.9,N
1621209155.7,286047000.2,N
1621209175.6,286047000.1,N
1621209195.4,286047004.2,Y
1621209215.3,286047003.6,P
1621209235.1,286047000.6,N
1621209255.8,286047001.2,N
1621209275.7,286047000.4,N
1621209295.5,286047000.0,N
1621209315.3,286047000.0,N
1621209335.2,286047001.0,N
1621209355.0,286047000.3,N
1621209355.9,286047000.3,N
1621209375.8,286047002.8,N
1621209395.6,286047001.5,N
1621209415.4,286047002.3,N
1621209435.3,286047002.4,N
1621209455.1,286047004.4,Y
1621209475.9,286047000.0,P
1621209495.7,286047001.2,N
1621209515.5,286047001.4,N
1621209535.4,286047001.3,N
1621209555.2,286047003.9,Y
1621209575.0,286047004.2,P
1621209576.0,286047004.2,N
1621209595.8,286047003.7,N
